• In Uzbekistan
  • List of Countries
  • For 7 days
  • Water Temperature
  • Satellite Maps
  • Weather Map
  • Weather Widgets
  • user-avatar
    Login

    Hourly Weather Castilho

    Today, 20 October, Friday

    Time Temperature Precipitation Wind Pressure Humidity
    00:00 +26°C° 0.9 mm 2 mps 726 mmHg 79%
    01:00 +26°C° 0.1 mm 1 mps 726 mmHg 79%
    02:00 +26°C° 0.1 mm 1 mps 726 mmHg 79%
    03:00 +26°C° 0.1 mm 1 mps 725 mmHg 78%
    04:00 +26°C° 0 mm 1 mps 725 mmHg 79%
    05:00 +25°C° 0 mm 1 mps 725 mmHg 79%
    06:00 +23°C° 0 mm 0 mps 725 mmHg 79%
    07:00 +27°C° 0 mm 1 mps 726 mmHg 72%
    08:00 +29°C° 0 mm 2 mps 726 mmHg 65%
    09:00 +30°C° 0 mm 3 mps 727 mmHg 58%
    10:00 +33°C° 0 mm 3 mps 727 mmHg 50%
    11:00 +35°C° 0 mm 3 mps 727 mmHg 41%
    12:00 +37°C° 0 mm 3 mps 727 mmHg 32%
    13:00 +38°C° 0 mm 3 mps 726 mmHg 29%
    14:00 +39°C° 0 mm 3 mps 725 mmHg 26%
    15:00 +39°C° 0 mm 3 mps 725 mmHg 23%
    16:00 +38°C° 0 mm 2 mps 724 mmHg 25%
    17:00 +37°C° 0 mm 2 mps 724 mmHg 27%
    18:00 +35°C° 0 mm 1 mps 724 mmHg 29%
    19:00 +34°C° 0 mm 1 mps 724 mmHg 31%
    20:00 +32°C° 0 mm 1 mps 724 mmHg 34%
    21:00 +31°C° 0 mm 1 mps 724 mmHg 36%
    22:00 +30°C° 0 mm 1 mps 724 mmHg 39%
    23:00 +29°C° 0 mm 2 mps 724 mmHg 41%

    Tomorrow, 21 October, Saturday

    Time Temperature Precipitation Wind Pressure Humidity
    00:00 +29°C° 0 mm 3 mps 724 mmHg 43%
    01:00 +29°C° 0 mm 3 mps 724 mmHg 44%
    02:00 +28°C° 0 mm 3 mps 723 mmHg 45%
    03:00 +28°C° 0 mm 3 mps 723 mmHg 45%
    04:00 +28°C° 0 mm 3 mps 723 mmHg 44%
    05:00 +28°C° 0 mm 3 mps 724 mmHg 44%
    06:00 +28°C° 0 mm 2 mps 724 mmHg 43%
    07:00 +30°C° 0 mm 3 mps 725 mmHg 38%
    08:00 +33°C° 0 mm 3 mps 725 mmHg 32%
    09:00 +35°C° 0 mm 3 mps 726 mmHg 27%
    10:00 +37°C° 0 mm 4 mps 726 mmHg 24%
    11:00 +39°C° 0 mm 5 mps 726 mmHg 22%
    12:00 +41°C° 0 mm 6 mps 726 mmHg 20%
    13:00 +41°C° 0 mm 5 mps 725 mmHg 20%
    14:00 +41°C° 0 mm 5 mps 725 mmHg 20%
    15:00 +41°C° 0 mm 4 mps 724 mmHg 20%
    16:00 +39°C° 0 mm 3 mps 724 mmHg 21%
    17:00 +38°C° 0 mm 3 mps 724 mmHg 23%
    18:00 +37°C° 0 mm 2 mps 724 mmHg 25%
    19:00 +36°C° 0.3 mm 2 mps 725 mmHg 29%
    20:00 +34°C° 0.3 mm 2 mps 725 mmHg 34%
    21:00 +31°C° 0.3 mm 2 mps 726 mmHg 39%
    22:00 +30°C° 0 mm 2 mps 726 mmHg 45%
    23:00 +29°C° 0 mm 2 mps 726 mmHg 51%

    Day after tomorrow, 22 October, Sunday

    Time Temperature Precipitation Wind Pressure Humidity
    00:00 +28°C° 0 mm 2 mps 726 mmHg 57%
    01:00 +28°C° 0 mm 2 mps 725 mmHg 59%
    02:00 +27°C° 0 mm 2 mps 725 mmHg 61%
    03:00 +27°C° 0 mm 2 mps 725 mmHg 62%
    04:00 +27°C° 0.2 mm 2 mps 725 mmHg 64%
    05:00 +26°C° 0.2 mm 2 mps 726 mmHg 66%
    06:00 +26°C° 0.2 mm 2 mps 726 mmHg 67%
    07:00 +27°C° 0.1 mm 3 mps 727 mmHg 64%
    08:00 +28°C° 0.1 mm 3 mps 727 mmHg 61%
    09:00 +29°C° 0.1 mm 4 mps 728 mmHg 58%
    10:00 +31°C° 0 mm 3 mps 728 mmHg 51%
    11:00 +33°C° 0 mm 3 mps 728 mmHg 45%
    12:00 +35°C° 0 mm 2 mps 728 mmHg 39%
    13:00 +35°C° 0.1 mm 2 mps 727 mmHg 39%
    14:00 +35°C° 0.1 mm 2 mps 727 mmHg 39%
    15:00 +35°C° 0.1 mm 2 mps 726 mmHg 38%
    16:00 +33°C° 0.2 mm 3 mps 726 mmHg 44%
    17:00 +32°C° 0.2 mm 4 mps 726 mmHg 50%
    18:00 +30°C° 0.2 mm 5 mps 726 mmHg 56%
    19:00 +29°C° 1.6 mm 4 mps 727 mmHg 62%
    20:00 +27°C° 1.6 mm 4 mps 727 mmHg 67%
    21:00 +26°C° 1.6 mm 3 mps 728 mmHg 73%
    22:00 +26°C° 0.5 mm 3 mps 727 mmHg 75%
    23:00 +25°C° 0.5 mm 3 mps 727 mmHg 78%

    23 October, Monday

    Time Temperature Precipitation Wind Pressure Humidity
    00:00 +25°C° 0.5 mm 3 mps 727 mmHg 80%
    01:00 +25°C° 0.3 mm 2 mps 727 mmHg 82%
    02:00 +25°C° 0.3 mm 2 mps 726 mmHg 84%
    03:00 +24°C° 0.3 mm 1 mps 726 mmHg 85%
    04:00 +24°C° 0 mm 2 mps 726 mmHg 86%
    05:00 +24°C° 0 mm 2 mps 726 mmHg 86%
    06:00 +24°C° 0 mm 3 mps 726 mmHg 86%
    07:00 +25°C° 0 mm 3 mps 727 mmHg 83%
    08:00 +26°C° 0 mm 3 mps 728 mmHg 79%
    09:00 +26°C° 0 mm 3 mps 728 mmHg 75%
    10:00 +28°C° 0 mm 3 mps 728 mmHg 68%
    11:00 +29°C° 0 mm 3 mps 728 mmHg 60%
    12:00 +31°C° 0 mm 3 mps 727 mmHg 52%
    13:00 +33°C° 0 mm 3 mps 727 mmHg 50%
    14:00 +33°C° 0 mm 3 mps 726 mmHg 47%
    15:00 +34°C° 0 mm 3 mps 725 mmHg 44%
    16:00 +33°C° 0.7 mm 3 mps 725 mmHg 49%
    17:00 +31°C° 0.7 mm 3 mps 725 mmHg 55%
    18:00 +29°C° 0.7 mm 3 mps 725 mmHg 60%
    19:00 +28°C° 0.5 mm 4 mps 726 mmHg 65%
    20:00 +27°C° 0.5 mm 5 mps 726 mmHg 70%
    21:00 +25°C° 0.5 mm 5 mps 726 mmHg 75%
    22:00 +25°C° 0.2 mm 5 mps 726 mmHg 77%
    23:00 +23°C° 0.2 mm 5 mps 726 mmHg 79%

    24 October, Tuesday

    Time Temperature Precipitation Wind Pressure Humidity
    00:00 +22°C° 0.2 mm 5 mps 726 mmHg 80%
    01:00 +21°C° 0.1 mm 5 mps 726 mmHg 80%
    02:00 +21°C° 0.1 mm 4 mps 726 mmHg 81%
    03:00 +21°C° 0.1 mm 4 mps 726 mmHg 81%
    04:00 +21°C° 0 mm 4 mps 726 mmHg 80%
    05:00 +20°C° 0 mm 4 mps 726 mmHg 80%
    06:00 +20°C° 0 mm 4 mps 727 mmHg 80%
    07:00 +22°C° 0 mm 4 mps 727 mmHg 74%
    08:00 +23°C° 0 mm 4 mps 728 mmHg 68%
    09:00 +26°C° 0 mm 4 mps 728 mmHg 62%
    10:00 +28°C° 0 mm 4 mps 728 mmHg 56%
    11:00 +30°C° 0 mm 3 mps 728 mmHg 51%
    12:00 +34°C° 0 mm 3 mps 728 mmHg 45%
    13:00 +35°C° 0 mm 2 mps 727 mmHg 42%
    14:00 +36°C° 0 mm 2 mps 726 mmHg 39%
    15:00 +37°C° 0 mm 2 mps 725 mmHg 36%
    16:00 +36°C° 0 mm 2 mps 725 mmHg 38%
    17:00 +35°C° 0 mm 2 mps 725 mmHg 40%
    18:00 +34°C° 0 mm 2 mps 725 mmHg 43%
    19:00 +32°C° 0 mm 2 mps 725 mmHg 45%
    20:00 +31°C° 0 mm 3 mps 726 mmHg 48%
    21:00 +30°C° 0 mm 3 mps 726 mmHg 51%
    22:00 +29°C° 0 mm 4 mps 726 mmHg 53%
    23:00 +28°C° 0 mm 4 mps 726 mmHg 56%

    25 October, Wednesday

    Time Temperature Precipitation Wind Pressure Humidity
    00:00 +28°C° 0 mm 5 mps 726 mmHg 58%
    01:00 +27°C° 0 mm 5 mps 726 mmHg 60%
    02:00 +26°C° 0 mm 5 mps 725 mmHg 62%
    03:00 +26°C° 0 mm 5 mps 725 mmHg 64%
    04:00 +25°C° 0 mm 5 mps 725 mmHg 66%
    05:00 +25°C° 0 mm 4 mps 726 mmHg 67%
    06:00 +23°C° 0 mm 4 mps 726 mmHg 68%
    07:00 +26°C° 0 mm 4 mps 727 mmHg 63%
    08:00 +28°C° 0 mm 4 mps 727 mmHg 58%
    09:00 +30°C° 0 mm 5 mps 727 mmHg 52%
    10:00 +33°C° 0 mm 4 mps 727 mmHg 47%
    11:00 +35°C° 0 mm 4 mps 727 mmHg 41%
    12:00 +37°C° 0 mm 3 mps 727 mmHg 35%
    13:00 +38°C° 0 mm 3 mps 726 mmHg 34%
    14:00 +38°C° 0 mm 2 mps 725 mmHg 32%
    15:00 +38°C° 0 mm 2 mps 724 mmHg 31%
    16:00 +38°C° 0 mm 2 mps 724 mmHg 32%
    17:00 +37°C° 0 mm 2 mps 723 mmHg 34%
    18:00 +36°C° 0 mm 3 mps 723 mmHg 36%
    19:00 +34°C° 1.2 mm 3 mps 723 mmHg 44%
    20:00 +31°C° 1.2 mm 3 mps 724 mmHg 53%
    21:00 +29°C° 1.2 mm 4 mps 725 mmHg 61%
    22:00 +28°C° 1.1 mm 4 mps 724 mmHg 66%
    23:00 +27°C° 1.1 mm 4 mps 724 mmHg 71%
    Show more